Weather History for KSLO - March, 2013

Change the Weather History Date:

Wednesday, March 6, 2013

  Actual Average Record
Temperature  
Mean Temperature 32 °F -  
Max Temperature 34 °F 51 °F 75 °F (1974)
Min Temperature 30 °F 29 °F -7 °F (1960)
Degree Days  
Heating Degree Days 32    
Moisture  
Dew Point 27 °F    
Average Humidity 81    
Maximum Humidity 84    
Minimum Humidity 77    
Precipitation  
Precipitation 0.00 in - - ()
Sea Level Pressure  
Sea Level Pressure 30.26 in    
Wind  
Wind Speed 17 mph (NNW)    
Max Wind Speed 24 mph    
Max Gust Speed 36 mph    
Visibility 10 miles    
Events      
Averages and records for this station are not official NWS values.
T = Trace of Precipitation, MM = Missing Value Source: NWS Daily Summary

Daily Weather History Graph

Daily Weather History Graph

Search for Another Location

Airport or City:

Trip Planner

Search our weather history database for the weather conditions in past years. The results will help you decide how hot, cold, wet, or windy it might be!

Date:

Astronomy

Mar. 06, 2013 Rise Set
Actual Time 6:20 AM CST 5:54 PM CST
Civil Twilight 5:53 AM CST 6:20 PM CST
Nautical Twilight 5:23 AM CST 6:51 PM CST
Astronomical Twilight 4:52 AM CST 7:22 PM CST
Moon 2:26 AM CST (3/6) 12:38 PM CST (3/6)
Length of Visible Light 12h 26m
Length of Day
11h 33m
Waning Crescent, 29% of the Moon is Illuminated
Mar 6
Waning Crescent
Mar 11
New
Mar 19
First Quarter
Mar 27
Full
Apr 2
Last Quarter

Hourly Weather History & Observations

Time (CST) Temp. Windchill Dew Point Humidity Pressure Visibility Wind Dir Wind Speed Gust Speed Precip Events Conditions
12:15 AM 33.3 °F 21.5 °F 27.7 °F 80% 30.03 in 10.0 mi WNW 20.7 mph 27.6 mph N/A   Overcast
12:35 AM 33.1 °F 20.3 °F 27.5 °F 80% 30.03 in 10.0 mi WNW 24.2 mph 33.4 mph N/A   Overcast
12:55 AM 33.1 °F 21.9 °F 28.0 °F 82% 30.05 in 10.0 mi NW 18.4 mph 26.5 mph N/A   Overcast
1:15 AM 32.9 °F 22.8 °F 28.0 °F 82% 30.06 in 10.0 mi NW 15.0 mph 28.8 mph N/A   Overcast
1:35 AM 32.9 °F 20.4 °F 28.0 °F 82% 30.06 in 10.0 mi NW 23.0 mph 28.8 mph N/A   Overcast
1:55 AM 32.9 °F 21.3 °F 27.9 °F 82% 30.07 in 10.0 mi NW 19.6 mph 26.5 mph N/A   Overcast
2:15 AM 32.9 °F 20.7 °F 27.5 °F 81% 30.07 in 10.0 mi NW 21.9 mph 32.2 mph N/A   Overcast
2:35 AM 32.9 °F 21.3 °F 27.3 °F 80% 30.08 in 10.0 mi NW 19.6 mph 27.6 mph N/A   Overcast
2:55 AM 32.5 °F 20.8 °F 27.3 °F 81% 30.09 in 10.0 mi NW 19.6 mph 25.3 mph N/A   Overcast
3:15 AM 32.7 °F 21.4 °F 27.7 °F 82% 30.10 in 10.0 mi NW 18.4 mph 28.8 mph N/A   Overcast
3:35 AM 32.5 °F 20.8 °F 27.5 °F 82% 30.10 in 10.0 mi NW 19.6 mph 29.9 mph N/A   Overcast
3:55 AM 32.0 °F 19.8 °F 26.8 °F 81% 30.11 in 10.0 mi NW 20.7 mph 26.5 mph N/A   Overcast
4:15 AM 32.0 °F 20.5 °F 26.6 °F 80% 30.12 in 10.0 mi NW 18.4 mph 27.6 mph N/A   Overcast
4:35 AM 32.0 °F 20.5 °F 26.4 °F 80% 30.14 in 10.0 mi NW 18.4 mph 35.7 mph N/A   Overcast
4:55 AM 32.0 °F 19.2 °F 26.4 °F 80% 30.15 in 10.0 mi NW 23.0 mph 34.5 mph N/A   Overcast
5:15 AM 32.0 °F 19.5 °F 26.6 °F 80% 30.16 in 10.0 mi NW 21.9 mph 29.9 mph N/A   Overcast
5:35 AM 32.0 °F 20.1 °F 26.4 °F 80% 30.18 in 10.0 mi NW 19.6 mph 31.1 mph N/A   Overcast
5:55 AM 32.0 °F 20.8 °F 27.0 °F 82% 30.19 in 10.0 mi NW 17.3 mph 25.3 mph N/A   Overcast
6:15 AM 32.2 °F 21.1 °F 27.1 °F 82% 30.20 in 10.0 mi NW 17.3 mph 24.2 mph N/A   Overcast
6:35 AM 32.0 °F 20.5 °F 27.5 °F 83% 30.20 in 10.0 mi NW 18.4 mph 23.0 mph N/A   Overcast
6:55 AM 32.0 °F 21.6 °F 27.3 °F 83% 30.21 in 10.0 mi NNW 15.0 mph - N/A   Overcast
7:15 AM 32.0 °F 20.5 °F 27.5 °F 83% 30.22 in 10.0 mi NNW 18.4 mph 23.0 mph N/A   Overcast
7:35 AM 32.0 °F 20.8 °F 27.3 °F 83% 30.24 in 10.0 mi NW 17.3 mph 24.2 mph N/A   Overcast
7:55 AM 32.0 °F 20.1 °F 27.1 °F 82% 30.25 in 10.0 mi NW 19.6 mph - N/A   Overcast
8:15 AM 32.0 °F 21.2 °F 27.0 °F 82% 30.27 in 10.0 mi NW 16.1 mph 24.2 mph N/A   Overcast
8:35 AM 32.0 °F 20.8 °F 26.4 °F 80% 30.27 in 10.0 mi NW 17.3 mph 27.6 mph N/A   Overcast
8:55 AM 32.0 °F 20.1 °F 26.6 °F 80% 30.28 in 10.0 mi NW 19.6 mph 26.5 mph N/A   Overcast
9:15 AM 32.0 °F 22.5 °F 27.0 °F 82% 30.29 in 10.0 mi NNW 12.7 mph 16.1 mph N/A   Overcast
9:35 AM 32.0 °F 21.6 °F 26.4 °F 80% 30.30 in 10.0 mi NNW 15.0 mph 21.9 mph N/A   Overcast
9:55 AM 32.0 °F 19.5 °F 26.2 °F 79% 30.31 in 10.0 mi NNW 21.9 mph 28.8 mph N/A   Overcast
10:15 AM 32.0 °F 20.8 °F 26.6 °F 80% 30.31 in 10.0 mi NW 17.3 mph 23.0 mph N/A   Overcast
10:35 AM 32.0 °F 21.6 °F 27.1 °F 82% 30.32 in 10.0 mi NW 15.0 mph - N/A   Overcast
10:55 AM 32.4 °F 23.5 °F 26.8 °F 80% 30.32 in 10.0 mi NW 11.5 mph 19.6 mph N/A   Overcast
11:15 AM 32.5 °F 21.9 °F 27.0 °F 80% 30.33 in 10.0 mi NNW 16.1 mph 21.9 mph N/A   Overcast
11:35 AM 33.1 °F 22.2 °F 27.3 °F 79% 30.33 in 10.0 mi NNW 17.3 mph - N/A   Overcast
11:55 AM 33.4 °F 23.9 °F 27.7 °F 79% 30.33 in 10.0 mi NW 13.8 mph - N/A   Overcast
12:15 PM 33.8 °F 23.5 °F 27.5 °F 78% 30.32 in 10.0 mi NNW 16.1 mph 19.6 mph N/A   Overcast
12:35 PM 33.8 °F 23.5 °F 27.9 °F 79% 30.32 in 10.0 mi NNW 16.1 mph 23.0 mph N/A   Overcast
12:55 PM 34.3 °F 25.5 °F 28.4 °F 79% 30.32 in 10.0 mi NNW 12.7 mph 18.4 mph N/A   Overcast
1:15 PM 34.3 °F 25.9 °F 28.0 °F 78% 30.31 in 10.0 mi NW 11.5 mph 17.3 mph N/A   Overcast
1:35 PM 34.3 °F 25.5 °F 28.2 °F 78% 30.31 in 10.0 mi NW 12.7 mph - N/A   Overcast
2:05 PM 33.8 °F 24.8 °F 28.4 °F 81% 30.31 in 10.0 mi NW 12.7 mph - N/A   Overcast
2:15 PM 34.7 °F 26.4 °F 28.2 °F 77% 30.31 in 10.0 mi NNW 11.5 mph - N/A   Overcast
2:35 PM 34.7 °F 26.9 °F 28.2 °F 77% 30.31 in 10.0 mi NW 10.4 mph - N/A   Overcast
2:55 PM 34.9 °F 27.7 °F 28.2 °F 77% 30.32 in 10.0 mi NW 9.2 mph 17.3 mph N/A   Overcast
3:15 PM 34.9 °F 26.2 °F 28.2 °F 77% 30.32 in 10.0 mi NNW 12.7 mph - N/A   Overcast
3:55 PM 34.7 °F 27.5 °F 28.4 °F 78% 30.33 in 10.0 mi NNW 9.2 mph - N/A   Overcast
4:15 PM 34.7 °F 26.9 °F 28.4 °F 78% 30.33 in 10.0 mi NNW 10.4 mph - N/A   Overcast
4:35 PM 34.7 °F 25.9 °F 28.9 °F 79% 30.33 in 10.0 mi NNW 12.7 mph - N/A   Overcast
4:55 PM 34.2 °F 25.2 °F 28.0 °F 78% 30.33 in 10.0 mi North 12.7 mph - N/A   Overcast
5:15 PM 34.0 °F 26.6 °F 28.4 °F 80% 30.33 in 10.0 mi North 9.2 mph - N/A   Overcast
5:35 PM 33.8 °F 25.8 °F 28.0 °F 79% 30.34 in 10.0 mi North 10.4 mph - N/A   Overcast
5:55 PM 33.6 °F 25.6 °F 28.0 °F 80% 30.34 in 10.0 mi North 10.4 mph - N/A   Overcast
6:15 PM 33.3 °F 26.4 °F 28.9 °F 84% 30.33 in 10.0 mi North 8.1 mph - N/A   Overcast
6:35 PM 33.1 °F 25.5 °F 28.4 °F 83% 30.34 in 10.0 mi North 9.2 mph - N/A   Overcast
6:55 PM 33.8 °F 26.4 °F 28.4 °F 81% 30.34 in 10.0 mi North 9.2 mph - N/A   Overcast
7:15 PM 33.1 °F 26.9 °F 28.4 °F 83% 30.35 in 10.0 mi North 6.9 mph - N/A   Overcast
7:35 PM 32.9 °F 26.7 °F 27.7 °F 81% 30.34 in 10.0 mi North 6.9 mph - N/A   Overcast
7:55 PM 32.9 °F 24.7 °F 27.9 °F 82% 30.35 in 10.0 mi North 10.4 mph - N/A   Overcast
8:15 PM 32.7 °F 26.4 °F 28.4 °F 84% 30.35 in 10.0 mi North 6.9 mph - N/A   Overcast
8:35 PM 32.5 °F 24.8 °F 27.7 °F 82% 30.35 in 10.0 mi North 9.2 mph - N/A   Overcast
8:55 PM 32.2 °F 24.4 °F 27.5 °F 83% 30.35 in 10.0 mi North 9.2 mph - N/A   Overcast
9:15 PM 32.2 °F 25.0 °F 27.5 °F 83% 30.35 in 10.0 mi North 8.1 mph - N/A   Overcast
9:35 PM 32.0 °F 23.0 °F 27.0 °F 82% 30.34 in 10.0 mi NNE 11.5 mph - N/A   Overcast
9:55 PM 32.0 °F 24.8 °F 27.0 °F 82% 30.35 in 10.0 mi North 8.1 mph - N/A   Overcast
10:15 PM 32.0 °F 24.8 °F 26.8 °F 81% 30.35 in 10.0 mi North 8.1 mph - N/A   Overcast
10:35 PM 32.0 °F 24.8 °F 26.8 °F 81% 30.35 in 10.0 mi North 8.1 mph - N/A   Overcast
10:55 PM 32.0 °F 25.6 °F 27.0 °F 82% 30.35 in 10.0 mi North 6.9 mph - N/A   Overcast
11:15 PM 31.6 °F 26.0 °F 26.2 °F 80% 30.35 in 10.0 mi NNE 5.8 mph - N/A   Mostly Cloudy
11:35 PM 31.1 °F 26.4 °F 26.1 °F 82% 30.34 in 10.0 mi NE 4.6 mph - N/A   Scattered Clouds
11:55 PM 30.9 °F 27.5 °F 25.7 °F 81% 30.34 in 10.0 mi NE 3.5 mph - N/A   Clear